This demonstration page uses our WeatherBlox Daily Observations layout. Learn more.

Left ArrowRight Arrow

Hourly Observations for October 17, 2016

Temp ( °F °C ) Dew Point ( °F °C ) Humidity (%) Winds ( mph kmh ) Pressure ( in mb ) Visibility ( mi km ) Precip ( " mm )
12:33 am 00:33 Clear with Mist and Fog 58 14.4 58 14.4 100 100 Calm 29.56 1001 1.75 2.816345 0 0
12:43 am 00:43 Clear with Mist and Fog 57 13.9 57 13.9 100 100 Calm 29.56 1001 0.75 1.207005 0 0
12:52 am 00:52 Clear with Mist and Fog 57 14 57 14 100 100 Calm 29.56 1001 1.5 2.41401 0 0
12:54 am 00:54 Clear with Mist and Fog 58 14.4 57 13.9 97 97 Calm 29.58 1002 3 4.82802 0 0
1:54 am 01:54 Clear 57 13.9 56 13.3 96 96 Calm 29.56 1001 9 14.48406 0 0
2:54 am 02:54 Clear 56 13.3 55 12.8 97 97 Calm 29.53 1000 9 14.48406 0 0
3:54 am 03:54 Clear 57 13.9 55 12.8 93 93 Calm 29.49 999 10 16.0934 0 0
4:54 am 04:54 Clear 57 13.9 55 12.8 93 93 Calm 29.46 998 10 16.0934 0 0
5:54 am 05:54 Clear 59 15 57 13.9 93 93 SE 6 9 29.43 997 9 14.48406 0 0
6:54 am 06:54 Clear 66 18.9 64 17.8 93 93 SSE 10 17 29.41 996 10 16.0934 0 0
7:54 am 07:54 Sunny 65 18.3 63 17.2 93 93 SSE 10 17 29.38 995 10 16.0934 0 0
8:54 am 08:54 Sunny 66 18.9 64 17.8 93 93 S 10 17 29.37 995 10 16.0934 0 0
9:54 am 09:54 Sunny 70 21.1 65 18.3 84 84 S 10 17 29.36 994 10 16.0934 0 0
10:54 am 10:54 Sunny 73 22.8 59 15 62 62 SSW 20 31 29.35 994 10 16.0934 0 0
11:54 am 11:54 Sunny 75 23.9 56 13.3 52 52 SW 15 24 29.34 994 10 16.0934 0 0
12:54 pm 12:54 Sunny 79 26.1 47 8.3 32 32 SSW 20 31 29.33 993 10 16.0934 0 0
1:54 pm 13:54 Sunny 82 27.8 48 8.9 31 31 SW 14 22 29.31 993 10 16.0934 0 0
2:54 pm 14:54 Sunny 83 28.3 53 11.7 36 36 SSW 15 24 29.31 993 10 16.0934 0 0
3:54 pm 15:54 Sunny 83 28.3 55 12.8 38 38 SSW 15 24 29.32 993 10 16.0934 0 0
4:54 pm 16:54 Sunny 84 28.9 57 13.9 40 40 SW 12 19 29.35 994 10 16.0934 0 0
5:54 pm 17:54 Sunny 81 27.2 60 15.6 49 49 WNW 9 15 29.38 995 10 16.0934 0 0
6:54 pm 18:54 Clear 76 24.4 60 15.6 58 58 W 5 7 29.41 996 10 16.0934 0 0
7:54 pm 19:54 Clear 67 19.4 59 15 76 76 Calm 29.45 997 10 16.0934 0 0
8:54 pm 20:54 Clear 63 17.2 57 13.9 81 81 Calm 29.47 998 10 16.0934 0 0
9:54 pm 21:54 Clear 63 17.2 58 14.4 84 84 Calm 29.49 999 10 16.0934 0 0
10:54 pm 22:54 Clear 67 19.4 53 11.7 61 61 WNW 6 9 29.52 1000 10 16.0934 0 0
11:54 pm 23:54 Clear 65 18.3 54 12.2 68 68 NW 8 13 29.55 1001 10 16.0934 0 0

Powered by AerisWeather